Вернуться в каталог

STARLINK-5307

АктивенСвязьVLEO
NORAD 55658·PAYLOAD·🇺🇸 United States

Запущен Feb 17, 2023 с Vandenberg Space Force Base

Loading…

Ближайшие Пролёты (ближайшие 24 часа)

TLE

СвежийSource: CelesTrak SupGP

Эпоха: Sep 15, 2026, 02:04 UTC

1 55658C 23021AG  26258.08659722 -.00054966  00000+0 -46067-2 0  2583
2 55658  70.0010  66.8023 0002605 273.3870 102.9020 14.98356406    18

Отслеживайте STARLINK-5307 в реальном времени с AllMySat

Download on the App Store